Location: Agendoh
(31.0664°N, 8.9343°W)
Time: 08:10:07
(UTC+00:00)

Meteor 2-13 Rocket - Pass Details

Date: 06 December 2021
Orbit: 936 x 957 km, 82.5° (Epoch: 24 January)

Event Time Altitude Azimuth Distance (km) Brightness Sun altitude
Rises 05:23:36 0° 195° (SSW) 3,611 7.5 -24.4°
Reaches altitude 10° 05:26:08 10° 199° (SSW) 2,666 6.7 -23.9°
Maximum altitude 05:32:07 58° 278° (W) 1,099 4.4 -22.6°
Drops below altitude 10° 05:38:06 10° 357° (N) 2,665 6.6 -21.4°
Sets 05:40:39 0° 1° (N) 3,610 7.3 -20.8°
